EW9167 Weather Reports


Display with metric or nautical units.
time (UTC)temp
F
wind
direction
speed
MPH
gust
MPH
rain 1hr
in
rain 24hr
in
rain mn
in
humidity
%
barometer
mb
20200406051937 54 198 2.0 7.0 0.00 0.00 0.00 73 1014.8
20200406051430 54 187 2.0 5.0 0.00 0.00 0.00 73 1014.8
20200406050931 54 173 2.0 6.0 0.00 0.00 0.00 73 1014.9
20200406050431 54 189 2.0 6.0 0.00 0.00 0.00 73 1015.0
20200406045920 54 238 2.0 5.0 0.00 0.00 0.00 73 1015.0
20200406045423 54 202 2.0 8.0 0.00 0.00 0.00 73 1015.1
20200406044926 54 198 2.0 9.0 0.00 0.00 0.00 73 1015.1
20200406044421 54 0 2.0 9.0 0.00 0.00 0.00 74 1015.1
20200406043907 54 194 1.0 5.0 0.00 0.00 0.00 74 1015.0
20200406043405 54 164 2.0 5.0 0.00 0.00 0.00 73 1015.1
20200406042908 54 217 2.0 6.0 0.00 0.00 0.00 74 1015.1
20200406042406 54 168 2.0 6.0 0.00 0.00 0.00 74 1015.2
20200406041906 54 166 2.0 6.0 0.00 0.00 0.00 74 1015.2
20200406041407 54 0 2.0 5.0 0.00 0.00 0.00 75 1015.3
20200406040907 54 211 2.0 5.0 0.00 0.00 0.00 75 1015.2
20200406040408 54 154 2.0 4.0 0.00 0.00 0.00 76 1015.2
20200406035911 54 178 2.0 4.0 0.00 0.00 0.00 76 1015.1
20200406035351 53 148 2.0 4.0 0.00 0.00 0.00 76 1015.2
20200406034853 53 171 2.0 6.0 0.00 0.00 0.00 77 1015.1
20200406034404 53 179 3.0 6.0 0.00 0.00 0.00 77 1015.1
20200406033851 53 151 2.0 5.0 0.00 0.00 0.00 79 1015.1
20200406033351 52 200 2.0 5.0 0.00 0.00 0.00 79 1015.2
20200406032905 52 160 2.0 4.0 0.00 0.00 0.00 80 1015.2
20200406032352 51 198 1.0 4.0 0.00 0.00 0.00 81 1015.2
20200406031853 51 196 1.0 4.0 0.00 0.00 0.00 81 1015.3
20200406031337 51 190 2.0 4.0 0.00 0.00 0.00 81 1015.3
20200406030837 51 168 2.0 4.0 0.00 0.00 0.00 82 1015.3
20200406030340 51 166 2.0 3.0 0.00 0.00 0.00 82 1015.4
20200406025844 51 186 1.0 3.0 0.00 0.00 0.00 82 1015.5
20200406025348 51 166 2.0 3.0 0.00 0.00 0.00 81 1015.5
20200406024841 51 167 2.0 3.0 0.00 0.00 0.00 81 1015.5
20200406024338 51 190 2.0 3.0 0.00 0.00 0.00 81 1015.4
20200406023837 51 184 1.0 3.0 0.00 0.00 0.00 80 1015.4
20200406023337 52 167 1.0 3.0 0.00 0.00 0.00 80 1015.5
20200406022836 52 0 2.0 3.0 0.00 0.00 0.00 80 1015.5
20200406022337 52 194 2.0 3.0 0.00 0.00 0.00 80 1015.4
20200406021838 52 183 2.0 4.0 0.00 0.00 0.00 80 1015.5
20200406021338 52 208 2.0 4.0 0.00 0.00 0.00 79 1015.5
20200406020838 52 186 2.0 4.0 0.00 0.00 0.00 79 1015.4
20200406020338 52 169 2.0 4.0 0.00 0.00 0.00 79 1015.5
20200406015847 52 149 2.0 4.0 0.00 0.00 0.00 79 1015.5
20200406015340 53 131 2.0 4.0 0.00 0.00 0.00 78 1015.5
20200406014824 53 164 2.0 3.0 0.00 0.00 0.00 77 1015.5
20200406014312 53 144 2.0 3.0 0.00 0.00 0.00 77 1015.5
20200406013810 54 215 2.0 3.0 0.00 0.00 0.00 77 1015.6
20200406013314 54 0 2.0 3.0 0.00 0.00 0.00 76 1015.7
20200406012758 54 199 2.0 3.0 0.00 0.00 0.00 76 1015.6
20200406012256 55 175 2.0 4.0 0.00 0.00 0.00 75 1015.6
20200406011744 55 175 2.0 4.0 0.00 0.00 0.00 74 1015.6
20200406011237 55 165 2.0 4.0 0.00 0.00 0.00 73 1015.6
20200406010739 56 198 2.0 4.0 0.00 0.00 0.00 73 1015.5
20200406010237 56 173 2.0 4.0 0.00 0.00 0.00 72 1015.5
20200406005746 56 175 2.0 4.0 0.00 0.00 0.00 72 1015.4
20200406005239 56 184 2.0 5.0 0.00 0.00 0.00 72 1015.3
20200406004743 56 174 2.0 5.0 0.00 0.00 0.00 72 1015.3
20200406004239 56 187 2.0 7.0 0.00 0.00 0.00 71 1015.2
20200406003738 57 205 2.0 7.0 0.00 0.00 0.00 70 1015.1
20200406003252 57 172 2.0 6.0 0.00 0.00 0.00 70 1015.1
20200406002740 57 152 3.0 6.0 0.00 0.00 0.00 68 1015.1
20200406002240 58 221 2.0 5.0 0.00 0.00 0.00 67 1015.0
20200406001739 58 148 2.0 4.0 0.00 0.00 0.00 66 1015.0
20200406001239 58 181 1.0 4.0 0.00 0.00 0.00 65 1015.0
20200406000736 58 0 1.0 4.0 0.00 0.00 0.00 65 1014.9
20200406000235 59 0 1.0 4.0 0.00 0.00 0.00 64 1014.8
20200405235742 59 163 2.0 4.0 0.00 0.00 0.00 63 1014.8
20200405235236 59 184 1.0 4.0 0.00 0.00 0.00 63 1014.7
20200405234738 60 161 1.0 4.0 0.00 0.00 0.00 62 1014.7
20200405234236 60 157 2.0 6.0 0.00 0.00 0.00 61 1014.6
20200405233737 60 152 2.0 6.0 0.00 0.00 0.00 60 1014.6
20200405233238 61 0 2.0 4.0 0.00 0.00 0.00 59 1014.5
20200405232729 61 202 2.0 4.0 0.00 0.00 0.00 58 1014.5
20200405232227 62 178 2.0 4.0 0.00 0.00 0.00 57 1014.6
20200405231729 62 198 2.0 4.0 0.00 0.00 0.00 56 1014.6
20200405231227 62 167 3.0 6.0 0.00 0.00 0.00 56 1014.5
20200405230727 63 215 2.0 6.0 0.00 0.00 0.00 55 1014.6
20200405230227 63 218 2.0 5.0 0.00 0.00 0.00 55 1014.6
20200405225728 64 0 2.0 7.0 0.00 0.00 0.00 54 1014.7
20200405225213 64 198 1.0 7.0 0.00 0.00 0.00 54 1014.7
20200405224711 65 126 1.0 7.0 0.00 0.00 0.00 53 1014.6
20200405224157 65 218 1.0 7.0 0.00 0.00 0.00 51 1014.7
20200405223656 66 281 1.0 3.0 0.00 0.00 0.00 51 1014.6
20200405223159 66 178 2.0 6.0 0.00 0.00 0.00 52 1014.6
20200405222700 66 97 2.0 6.0 0.00 0.00 0.00 51 1014.6
20200405222148 66 137 2.0 5.0 0.00 0.00 0.00 51 1014.5
20200405221718 67 0 1.0 5.0 0.00 0.00 0.00 51 1014.5
20200405063214 44 0 2.0 3.0 0.00 0.00 0.00 94 1017.1
20200405062702 44 169 1.0 3.0 0.00 0.00 0.00 93 1017.1
20200405062158 44 140 1.0 2.0 0.00 0.00 0.00 93 1017.2
20200405061659 45 0 1.0 3.0 0.00 0.00 0.00 93 1017.2
20200405061157 45 0 2.0 3.0 0.00 0.00 0.00 93 1017.3
20200405060657 46 0 2.0 3.0 0.00 0.00 0.00 93 1017.2
20200405060156 46 209 2.0 3.0 0.00 0.00 0.00 93 1017.3
20200405055829 46 167 1.0 3.0 0.00 0.00 0.00 93 1017.3
20200405055158 46 189 1.0 3.0 0.00 0.00 0.00 93 1017.3
20200405054703 46 248 1.0 3.0 0.00 0.00 0.00 93 1017.3
20200405054158 46 0 1.0 2.0 0.00 0.00 0.00 93 1017.3
20200405053658 46 154 1.0 3.0 0.00 0.00 0.00 93 1017.3
20200405053157 45 170 2.0 4.0 0.00 0.00 0.00 93 1017.3
20200405052658 45 195 2.0 4.0 0.00 0.00 0.00 94 1017.3